Location: Baia Mare
(47.6567°N, 23.5850°E)
Time: 22:40:50
(UTC+03:00)

ISS - Pass Details

Date: 12 September 2019
Orbit: 411 x 421 km, 51.6° (Epoch: 19 September)

Event Time Altitude Azimuth Distance (km) Brightness Sun altitude
Exits shadow 05:43:37 17° 288° (WNW) 1,125 -2.0 -13.0°
Maximum altitude 05:46:02 66° 208° (SSW) 458 -3.8 -12.6°
Drops below altitude 10° 05:49:20 10° 126° (SE) 1,489 -0.5 -12.1°
Sets 05:51:26 0° 124° (SE) 2,352 0.6 -11.7°
